Time,TemperatureF,DewpointF,PressureIn,WindDirection,WindDirectionDegrees,WindSpeedMPH,WindSpeedGustMPH,Humidity,HourlyPrecipIn,Conditions,Clouds,dailyrainin,SoftwareType,DateUTC
2015-07-28 00:02:00,77.4,75.0,29.97,South,188,1.0,1.0,92,0.00,,,0.01,weatherlink.com 1.10,2015-07-28 04:02:00,
2015-07-28 00:17:00,77.3,75.0,29.97,South,188,0.0,1.0,92,0.00,,,0.01,weatherlink.com 1.10,2015-07-28 04:17:00,
2015-07-28 00:32:00,77.3,75.0,29.97,South,188,0.0,2.0,92,0.00,,,0.01,weatherlink.com 1.10,2015-07-28 04:32:00,
2015-07-28 00:47:00,77.3,75.0,29.97,South,186,0.0,0.0,92,0.00,,,0.01,weatherlink.com 1.10,2015-07-28 04:47:00,
2015-07-28 01:02:00,77.2,75.0,29.97,South,186,0.0,0.0,92,0.00,,,0.01,weatherlink.com 1.10,2015-07-28 05:02:00,
2015-07-28 01:18:00,77.1,75.0,29.96,South,186,0.0,0.0,93,0.00,,,0.01,weatherlink.com 1.10,2015-07-28 05:18:00,
2015-07-28 01:33:00,76.9,75.0,29.96,South,186,0.0,0.0,93,0.00,,,0.01,weatherlink.com 1.10,2015-07-28 05:33:00,
2015-07-28 01:48:00,76.8,75.0,29.95,South,186,0.0,0.0,93,0.00,,,0.01,weatherlink.com 1.10,2015-07-28 05:48:00,
2015-07-28 02:03:00,76.7,75.0,29.95,South,186,0.0,0.0,93,0.00,,,0.01,weatherlink.com 1.10,2015-07-28 06:03:00,
2015-07-28 02:18:00,76.6,75.0,29.95,South,186,0.0,0.0,93,0.00,,,0.00,weatherlink.com 1.10,2015-07-28 06:18:00,
2015-07-28 02:33:00,76.4,75.0,29.95,South,186,0.0,0.0,94,0.00,,,0.00,weatherlink.com 1.10,2015-07-28 06:33:00,
2015-07-28 02:48:00,76.1,74.0,29.94,South,186,0.0,0.0,94,0.00,,,0.00,weatherlink.com 1.10,2015-07-28 06:48:00,
2015-07-28 03:03:00,75.8,74.0,29.94,South,186,0.0,0.0,94,0.00,,,0.00,weatherlink.com 1.10,2015-07-28 07:03:00,
2015-07-28 03:18:00,75.5,74.0,29.94,South,186,0.0,0.0,94,0.00,,,0.00,weatherlink.com 1.10,2015-07-28 07:18:00,
2015-07-28 03:33:00,75.3,74.0,29.94,South,186,0.0,0.0,94,0.00,,,0.00,weatherlink.com 1.10,2015-07-28 07:33:00,
2015-07-28 03:48:00,75.3,74.0,29.94,South,186,0.0,0.0,95,0.00,,,0.00,weatherlink.com 1.10,2015-07-28 07:48:00,
2015-07-28 04:03:00,75.2,74.0,29.94,South,186,0.0,0.0,95,0.00,,,0.00,weatherlink.com 1.10,2015-07-28 08:03:00,
2015-07-28 04:18:00,75.3,74.0,29.95,South,186,0.0,0.0,95,0.00,,,0.00,weatherlink.com 1.10,2015-07-28 08:18:00,
2015-07-28 04:33:00,75.2,74.0,29.95,South,186,0.0,0.0,95,0.00,,,0.00,weatherlink.com 1.10,2015-07-28 08:33:00,
2015-07-28 04:49:00,75.1,74.0,29.95,South,186,0.0,0.0,95,0.00,,,0.00,weatherlink.com 1.10,2015-07-28 08:49:00,
2015-07-28 05:03:00,75.0,74.0,29.95,South,186,0.0,0.0,95,0.00,,,0.00,weatherlink.com 1.10,2015-07-28 09:03:00,
2015-07-28 05:18:00,75.0,74.0,29.95,South,186,0.0,0.0,95,0.00,,,0.00,weatherlink.com 1.10,2015-07-28 09:18:00,
2015-07-28 05:33:00,75.1,74.0,29.95,South,186,0.0,0.0,95,0.00,,,0.00,weatherlink.com 1.10,2015-07-28 09:33:00,
2015-07-28 05:48:00,75.1,74.0,29.95,South,186,0.0,0.0,95,0.00,,,0.00,weatherlink.com 1.10,2015-07-28 09:48:00,
2015-07-28 06:03:00,75.4,74.0,29.95,South,186,0.0,0.0,95,0.00,,,0.00,weatherlink.com 1.10,2015-07-28 10:03:00,
2015-07-28 06:18:00,75.4,74.0,29.95,South,186,0.0,0.0,95,0.00,,,0.00,weatherlink.com 1.10,2015-07-28 10:18:00,
2015-07-28 06:33:00,75.5,74.0,29.96,South,186,0.0,0.0,95,0.00,,,0.00,weatherlink.com 1.10,2015-07-28 10:33:00,
2015-07-28 06:48:00,75.3,74.0,29.96,South,186,0.0,0.0,95,0.00,,,0.00,weatherlink.com 1.10,2015-07-28 10:48:00,
2015-07-28 07:03:00,75.3,74.0,29.97,South,186,0.0,0.0,96,0.00,,,0.00,weatherlink.com 1.10,2015-07-28 11:03:00,
2015-07-28 07:18:00,75.5,74.0,29.98,South,186,0.0,0.0,96,0.00,,,0.00,weatherlink.com 1.10,2015-07-28 11:18:00,
2015-07-28 07:33:00,76.3,75.0,29.98,South,186,0.0,0.0,96,0.00,,,0.00,weatherlink.com 1.10,2015-07-28 11:33:00,
2015-07-28 07:48:00,76.9,76.0,29.99,SSW,199,0.0,2.0,96,0.00,,,0.00,weatherlink.com 1.10,2015-07-28 11:48:00,
2015-07-28 08:03:00,77.8,76.0,29.99,SSW,200,0.0,0.0,95,0.00,,,0.00,weatherlink.com 1.10,2015-07-28 12:03:00,
2015-07-28 08:18:00,79.2,78.0,29.99,SSW,200,0.0,1.0,95,0.00,,,0.00,weatherlink.com 1.10,2015-07-28 12:18:00,
2015-07-28 08:33:00,80.7,78.0,29.99,SW,218,0.0,2.0,92,0.00,,,0.00,weatherlink.com 1.10,2015-07-28 12:33:00,
2015-07-28 08:48:00,82.3,79.0,29.99,SSW,200,2.0,7.0,89,0.00,,,0.00,weatherlink.com 1.10,2015-07-28 12:48:00,
2015-07-28 09:03:00,83.3,79.0,30.00,West,261,2.0,8.0,86,0.00,,,0.00,weatherlink.com 1.10,2015-07-28 13:03:00,
2015-07-28 09:18:00,83.9,78.0,30.00,NW,306,2.0,11.0,83,0.00,,,0.00,weatherlink.com 1.10,2015-07-28 13:18:00,
2015-07-28 09:48:00,84.8,78.0,30.00,South,174,2.0,8.0,81,0.00,,,0.00,weatherlink.com 1.10,2015-07-28 13:48:00,
2015-07-28 10:03:00,85.2,78.0,30.00,SSW,204,3.0,12.0,80,0.00,,,0.00,weatherlink.com 1.10,2015-07-28 14:03:00,
2015-07-28 10:18:00,85.4,79.0,30.00,WNW,292,2.0,9.0,81,0.00,,,0.00,weatherlink.com 1.10,2015-07-28 14:18:00,
2015-07-28 10:34:00,85.6,78.0,30.01,West,266,7.0,10.0,79,0.00,,,0.00,weatherlink.com 1.10,2015-07-28 14:34:00,
2015-07-28 10:49:00,85.9,79.0,30.01,SW,221,3.0,10.0,80,0.00,,,0.00,weatherlink.com 1.10,2015-07-28 14:49:00,
2015-07-28 11:04:00,85.2,78.0,30.01,West,281,3.0,9.0,79,0.00,,,0.00,weatherlink.com 1.10,2015-07-28 15:04:00,
2015-07-28 11:19:00,85.9,79.0,30.00,West,274,6.0,9.0,80,0.00,,,0.00,weatherlink.com 1.10,2015-07-28 15:19:00,
2015-07-28 11:34:00,86.4,79.0,30.00,WSW,238,3.0,13.0,78,0.00,,,0.00,weatherlink.com 1.10,2015-07-28 15:34:00,
2015-07-28 11:49:00,87.2,80.0,30.00,SW,232,4.0,10.0,78,0.00,,,0.00,weatherlink.com 1.10,2015-07-28 15:49:00,
2015-07-28 12:04:00,87.2,79.0,30.00,SW,227,4.0,10.0,77,0.00,,,0.00,weatherlink.com 1.10,2015-07-28 16:04:00,
2015-07-28 12:34:00,88.2,78.0,30.00,WSW,246,3.0,8.0,72,0.00,,,0.00,weatherlink.com 1.10,2015-07-28 16:34:00,
2015-07-28 12:49:00,87.7,79.0,29.99,WSW,239,4.0,9.0,74,0.00,,,0.00,weatherlink.com 1.10,2015-07-28 16:49:00,
2015-07-28 13:04:00,88.0,79.0,29.99,West,267,3.0,8.0,74,0.00,,,0.00,weatherlink.com 1.10,2015-07-28 17:04:00,
2015-07-28 13:19:00,85.0,79.0,29.99,West,277,2.0,13.0,83,0.00,,,0.00,weatherlink.com 1.10,2015-07-28 17:19:00,
2015-07-28 13:34:00,84.7,79.0,29.99,WSW,244,3.0,11.0,83,0.00,,,0.00,weatherlink.com 1.10,2015-07-28 17:34:00,